User: anonymous   Login
Location: Unspecified
(0.0000°N, 0.0000°E)
Time: 15:03:43
(UTC+01:00)
Language:

Cosmos 1626 Rocket - Orbit

View from above orbital plane
View from above orbital plane
View from above satellite
View from above satellite

Ground track
Ground track

The orbit data is extracted from the following two-line orbital elements,

1 15495U 85009B   14305.13088300  .00000415  00000-0  47620-4 0  9311
2 15495 082.5263 005.5960 0019020 251.0030 108.9124 14.83332732607767
Epoch (UTC): 01 November 2014 03:08:28
Eccentricity: 0.0019020
inclination: 82.5263°
perigee height: 605 km
apogee height: 632 km
right ascension of ascending node: 5.5960°
argument of perigee: 251.0030°
revolutions per day: 14.83332732
mean anomaly at epoch: 108.9124°
orbit number at epoch: 60776

The dashed part of the orbit path shows where the satellite is in the earth's shadow,  

DLR